Home   Weather   Bergisch Gladbach   Past weeks

Flag for Germany Past Weather in Bergisch Gladbach, North Rhine-Westphalia, Germany — Yesterday and Last 2 Weeks

Now
21 °F

Sunny.


Feels Like: 21 °F
Forecast: 26 / 38 °F
Wind: 2 mph from North

Location: Koeln / Bonn

Current Time: Dec 4, 2016 at 9:20:02 am

Latest Report: Dec 4, 2016 at 8:50 am


Visibility: 10 mi

Pressure: 30.36 "Hg

Humidity: 93%

Dew Point: 19 °F

Location of Bergisch GladbachLocation

Past Weather in Bergisch Gladbach — Graph

°F

Bergisch Gladbach Temperature Yesterday

Maximum temperature yesterday: 37 °F (at 1:20 pm)
Minimum temperature yesterday: 23 °F (at 11:50 pm)
Average temperature yesterday: 29 °F

High & Low Weather Summary for the Past Weeks

 TemperatureHumidityPressure
High61 °F (Nov 24, 1:20 pm)100% (Nov 23, 12:20 am)30.57 "Hg (Nov 23, 12:20 am)
Low18 °F (Nov 30, 6:50 am)44% (Nov 25, 3:20 pm)29.39 "Hg (Nov 20, 9:50 am)
Average41 °F82%30.10 "Hg
* Reported Nov 19 8:20 am — Dec 4 8:20 am, Bergisch Gladbach, Weather by CustomWeather, © 2016

Note: Actual official high and low records may vary slightly from our data, if they occured in-between our weather recording intervals... More about our weather records

Advertising

Bergisch Gladbach Weather History for the Previous 24 Hours

Scroll right to see more
 ConditionsComfort  
Time TempWeatherWind HumidityBarometerVisibility
8:20 am
Sun, Dec 4
19 °FPassing clouds.3 mph93%30.33 "HgN/A
7:50 am19 °FClear.1 mph100%30.33 "Hg10 mi
7:20 am21 °FClear.2 mph93%30.33 "Hg10 mi
6:50 am21 °FClear.2 mph93%30.33 "Hg10 mi
6:20 am23 °FPassing clouds.3 mph93%30.33 "HgN/A
5:50 am23 °FClear.2 mph93%30.33 "Hg10 mi
5:20 am21 °FPassing clouds.3 mph93%30.33 "HgN/A
4:50 am21 °FClear.1 mph100%30.33 "Hg10 mi
4:20 am21 °FClear.3 mph93%30.33 "Hg10 mi
3:50 am21 °FClear.2 mph93%30.33 "Hg10 mi
3:20 am21 °FClear.2 mph93%30.33 "Hg10 mi
2:50 am23 °FClear.5 mph93%30.33 "Hg10 mi
2:20 am23 °FClear.3 mph100%30.33 "Hg10 mi
1:50 am21 °FPassing clouds.3 mph100%30.33 "HgN/A
1:20 am23 °FCold.1 mph93%30.33 "Hg4 mi
12:50 am21 °FCold.1 mph100%30.33 "Hg2 mi
12:20 am23 °FCold.3 mph100%30.33 "Hg1 mi
11:50 pm
Sat, Dec 3
23 °FCold.1 mph100%30.33 "Hg1 mi
11:20 pm25 °FIce fog.2 mph100%30.33 "Hg0 mi
10:50 pm25 °FIce fog.2 mph100%30.33 "Hg0 mi
10:20 pm25 °FIce fog.1 mph100%30.33 "Hg0 mi
9:50 pm27 °FIce fog.2 mph100%30.33 "Hg0 mi
9:20 pm27 °FIce fog.1 mph100%30.33 "Hg0 mi
8:50 pm28 °FIce fog.1 mph100%30.30 "Hg0 mi
8:20 pm28 °FIce fog.2 mph100%30.33 "Hg0 mi
7:50 pm28 °FIce fog.5 mph100%30.33 "Hg0 mi
7:20 pm27 °FIce fog.5 mph100%30.33 "Hg0 mi
6:50 pm25 °FIce fog.5 mph100%30.30 "Hg0 mi
6:20 pm28 °FChilly.1 mph100%30.30 "Hg4 mi
5:50 pm30 °FSnow. Overcast.1 mph100%30.30 "Hg4 mi
5:20 pm30 °FSnow. Overcast.No wind100%30.30 "Hg4 mi
4:50 pm32 °FFog.1 mph100%30.30 "HgN/A
4:20 pm34 °FSunny.1 mph93%30.30 "Hg10 mi
3:50 pm36 °FPassing clouds.3 mph93%30.30 "HgN/A
3:20 pm37 °FPassing clouds.3 mph87%30.30 "HgN/A
2:50 pm37 °FPassing clouds.2 mph87%30.30 "HgN/A
2:20 pm37 °FSleet. Light fog.3 mph87%30.30 "HgN/A
1:50 pm37 °FSleet. Light fog.2 mph87%30.30 "HgN/A
1:20 pm37 °FPassing clouds.2 mph87%30.30 "HgN/A
12:50 pm36 °FPassing clouds.3 mph87%30.30 "HgN/A
12:20 pm36 °FPassing clouds.2 mph87%30.30 "HgN/A
11:50 am36 °FPassing clouds.2 mph87%30.30 "HgN/A
11:20 am34 °FPassing clouds.1 mph93%30.33 "HgN/A
10:50 am32 °FPassing clouds.2 mph93%30.33 "HgN/A
10:20 am30 °FFog.No wind93%30.30 "HgN/A
9:50 am27 °FFog.3 mph100%30.30 "Hg6 mi
9:20 am25 °FLight fog.1 mph93%30.30 "Hg4 mi
Weather by CustomWeather, © 2016

See weather overviewHow to use our weather pages